Location: Ciserano
(45.5833°N, 9.6000°E)
Time: 08:23:39
(UTC+00:00)

Cosmos 158 Rocket - Pass Details

Date: 29 November 2020
Orbit: 698 x 794 km, 74.0° (Epoch: 26 January)

Event Time Altitude Azimuth Distance (km) Brightness Sun altitude
Exits shadow 04:10:52 67° 355° (N) 773 3.9 -25.4°
Maximum altitude 04:11:32 83° 68° (ENE) 722 3.8 -25.2°
Drops below altitude 10° 04:16:31 10° 157° (SSE) 2,205 6.7 -24.4°
Sets 04:18:52 0° 158° (SSE) 3,136 7.5 -24.0°
